DW5775 Weather Reports


Display with metric or nautical units.
time (UTC)temp
F
wind
direction
speed
MPH
gust
MPH
rain 1hr
in
rain 24hr
in
rain mn
in
humidity
%
barometer
mb
20260906044603 60 290 0.0 0.0 0.00 0.00 0.00 90 1015.4
20260906043053 60 291 0.0 0.0 0.00 0.00 0.00 89 1015.5
20260906041553 61 291 0.0 0.0 0.00 0.00 0.00 88 1015.2
20260906040124 61 291 0.0 0.0 0.00 0.00 0.00 87 1015.2
20260906034600 61 291 0.0 0.0 0.00 0.00 0.00 87 1015.2
20260906033102 62 291 0.0 0.0 0.00 0.00 0.00 87 1015.2
20260906031545 62 290 0.0 0.0 0.00 0.00 0.00 87 1015.2
20260906030042 63 290 0.0 0.0 0.00 0.00 0.00 85 1015.1
20260906024540 64 291 0.0 0.0 0.00 0.00 0.00 84 1015.0
20260906023036 64 291 0.0 0.0 0.00 0.00 0.00 83 1015.1
20260906021535 65 290 0.0 0.0 0.00 0.00 0.00 82 1015.1
20260906020034 65 291 0.0 0.0 0.00 0.00 0.00 81 1015.0
20260906014531 66 291 0.0 0.0 0.00 0.00 0.00 78 1015.0
20260906013030 66 291 0.0 0.0 0.00 0.00 0.00 77 1014.7
20260906011526 67 293 0.0 0.0 0.00 0.00 0.00 74 1014.6
20260906010025 68 290 0.0 0.0 0.00 0.00 0.00 72 1014.4
20260906004522 69 298 0.0 1.0 0.00 0.00 0.00 71 1014.1
20260906003021 69 284 0.0 0.0 0.00 0.00 0.00 74 1014.1
20260906001523 70 288 0.0 1.0 0.00 0.00 0.00 75 1013.9
20260906000021 71 277 0.0 1.0 0.00 0.00 0.00 73 1013.7
20260905234520 71 232 0.0 1.0 0.00 0.00 0.00 71 1013.6
20260905233018 72 225 0.0 0.0 0.00 0.00 0.00 70 1013.7
20260905231520 72 214 0.0 1.0 0.00 0.00 0.00 67 1013.7
20260905230017 73 302 0.0 1.0 0.00 0.00 0.00 67 1013.6
20260905224536 74 286 0.0 2.0 0.00 0.00 0.00 64 1013.5
20260905223020 74 276 0.0 1.0 0.00 0.00 0.00 64 1013.3
20260905221515 75 291 0.0 0.0 0.00 0.00 0.00 65 1013.3
20260905220014 75 12 0.0 2.0 0.00 0.00 0.00 63 1013.1
20260905214514 76 284 0.0 3.0 0.00 0.00 0.00 61 1013.1
20260905213013 77 43 0.0 3.0 0.00 0.00 0.00 60 1012.9
20260905211534 78 72 0.0 1.0 0.00 0.00 0.00 57 1013.0
20260905210020 78 225 0.0 3.0 0.00 0.00 0.00 60 1013.0
20260905204510 78 286 0.0 2.0 0.00 0.00 0.00 59 1013.0
20260905203010 79 309 0.0 0.0 0.00 0.00 0.00 60 1013.0
20260905201509 78 305 0.0 0.0 0.00 0.00 0.00 64 1013.0
20260905200019 77 288 0.0 0.0 0.00 0.00 0.00 66 1013.1
20260905194506 77 288 0.0 0.0 0.00 0.00 0.00 66 1013.1
20260905193008 78 236 0.0 0.0 0.00 0.00 0.00 66 1013.3
20260905191505 78 249 0.0 2.0 0.00 0.00 0.00 63 1013.2
20260905190004 78 272 0.0 1.0 0.00 0.00 0.00 64 1013.4
20260905184506 78 288 0.0 1.0 0.00 0.00 0.00 65 1013.5
20260905183001 79 262 0.0 3.0 0.00 0.00 0.00 63 1013.4
20260905181559 78 300 0.0 2.0 0.00 0.00 0.00 64 1013.5
20260905180104 78 291 0.0 3.0 0.00 0.00 0.00 66 1013.6
20260905174553 76 236 0.0 3.0 0.00 0.00 0.00 70 1013.6
20260905173106 76 274 0.0 4.0 0.00 0.00 0.00 70 1013.6
20260905171552 76 55 0.0 2.0 0.00 0.00 0.00 66 1013.8
20260905170100 76 208 0.0 1.0 0.00 0.00 0.00 68 1013.9
20260905164549 75 37 0.0 3.0 0.00 0.02 0.00 70 1014.1
20260905163045 75 296 0.0 2.0 0.00 0.02 0.00 73 1013.9
20260905161601 75 285 0.0 4.0 0.00 0.02 0.00 75 1013.9
20260905160040 74 231 0.0 2.0 0.00 0.02 0.00 75 1013.9
20260905154537 73 13 0.0 3.0 0.00 0.10 0.00 76 1013.8
20260905153036 72 34 0.0 2.0 0.00 0.10 0.00 79 1013.7
20260905151531 71 302 0.0 0.0 0.00 0.10 0.00 82 1013.8
20260905150030 71 65 0.0 0.0 0.00 0.10 0.00 83 1013.7
20260905144527 71 116 0.0 1.0 0.00 0.27 0.00 84 1013.7
20260905143024 70 283 0.0 2.0 0.00 0.27 0.00 86 1013.5
20260905141524 70 291 0.0 2.0 0.00 0.27 0.00 87 1013.2
20260905140022 69 70 0.0 0.0 0.00 0.27 0.00 88 1013.4
20260905134521 68 70 0.0 1.0 0.00 0.43 0.00 90 1013.6
20260905133031 68 305 0.0 1.0 0.00 0.43 0.00 90 1013.3
20260905131525 67 49 0.0 2.0 0.00 0.43 0.00 92 1013.2
20260905130019 67 27 0.0 0.0 0.00 0.43 0.00 93 1013.4
20260905124519 67 27 0.0 0.0 0.00 0.50 0.00 93 1013.5
20260905123017 67 27 0.0 0.0 0.00 0.50 0.00 93 1013.6
20260905121515 67 48 0.0 2.0 0.00 0.50 0.00 93 1013.4
20260905120014 67 218 0.0 0.0 0.00 0.50 0.00 93 1013.3
20260905114513 67 223 0.0 0.0 0.00 0.51 0.00 93 1013.2
20260905113012 66 221 0.0 0.0 0.00 0.51 0.00 93 1012.9
20260905111510 66 221 0.0 0.0 0.00 0.51 0.00 93 1012.9
20260905110009 66 218 0.0 0.0 0.00 0.51 0.00 93 1012.8
20260905104508 66 219 0.0 0.0 0.00 0.51 0.00 93 1012.8
20260905103008 66 72 0.0 0.0 0.00 0.51 0.00 94 1012.9
20260905101507 67 70 0.0 0.0 0.00 0.51 0.00 94 1012.7
20260905100005 67 111 0.0 0.0 0.00 0.51 0.00 94 1012.9
20260905094505 67 281 0.0 0.0 0.00 0.51 0.00 94 1012.7
20260905093003 67 281 0.0 0.0 0.00 0.51 0.00 94 1012.6
20260905091503 67 281 0.0 0.0 0.00 0.51 0.00 94 1012.9
20260905090002 67 281 0.0 0.0 0.00 0.51 0.00 94 1012.7
20260905084601 67 281 0.0 0.0 0.00 0.51 0.00 94 1012.4
20260905083119 67 281 0.0 0.0 0.00 0.51 0.00 94 1012.2
20260905081608 67 281 0.0 0.0 0.00 0.51 0.00 94 1012.1
20260905080058 68 281 0.0 0.0 0.00 0.51 0.00 94 1012.1
20260905074558 68 281 0.0 0.0 0.00 0.51 0.00 95 1012.3
20260905073058 68 281 0.0 0.0 0.00 0.51 0.00 95 1012.6
20260905071557 68 281 0.0 0.0 0.00 0.51 0.00 95 1012.4
20260905070055 68 283 0.0 0.0 0.00 0.51 0.00 95 1012.1
20260905064612 68 283 0.0 0.0 0.00 0.51 0.00 96 1012.0
20260905063055 67 283 0.0 0.0 0.00 0.51 0.00 96 1011.9
20260905061553 68 283 0.0 0.0 0.00 0.51 0.00 96 1011.9
20260905060051 68 281 0.0 0.0 0.00 0.51 0.00 96 1012.4
20260905054634 68 281 0.0 0.0 0.00 0.51 0.00 96 1012.5
20260905053048 69 281 0.0 0.0 0.00 0.51 0.00 96 1012.8
20260905051546 69 281 0.0 0.0 0.00 0.51 0.00 95 1012.6
20260905050045 69 281 0.0 0.0 0.00 0.51 0.00 95 1012.4